STATION HISTORICAL DATA FROM WUNDERGROUND.COM FOR HIGH PARK VILLAGE,TORONTO,ON,CANADA
 
Daily Summary for July 18, 2019 Units:  Metric    English   Both
Next Day »
Daily Weekly Monthly Yearly Custom
  Current: High: Low: Average:
Temperature: 30.4 °C 34.9 °C 23.2 °C 26.1 °C
Dew Point: 20.9 °C 22.2 °C 18.6 °C 20.5 °C
Humidity: 57% 86% 45% 73%
Wind Speed: 0km/h 7.4km/h 0km/h 0.8km/h
Wind Gust: 0km/h 5.1km/h - -
WindCalm - - SSW
Pressure: 1010.4 hPa 1014.4 hPa 1010.4 hPa -
Precipitation: 0 mm      
Historical Graphs
 
 
Tabular Data for July 18, 2019
Time Temperature Dew Point Pressure Wind Wind Speed Wind Gust Humidity Rainfall Rate (Hourly) Solar Conditions
00:04 25.3 °C 21.6 °C 1012.8 hPa Calm     80% 0 mm 0.00 W/m2 RA
00:09 25.2 °C 21.5 °C 1012.8 hPa Calm     80% 0 mm 0.00 W/m2 RA
00:14 25.1 °C 21.4 °C 1012.8 hPa Calm     80% 0 mm 0.00 W/m2
00:19 24.9 °C 21.5 °C 1012.8 hPa Calm     81% 0 mm 0.00 W/m2
00:24 24.8 °C 21.4 °C 1012.8 hPa Calm     81% 0 mm 0.00 W/m2
00:29 24.7 °C 21.2 °C 1012.8 hPa Calm     81% 0 mm 0.00 W/m2
00:34 24.6 °C 21.3 °C 1012.8 hPa Calm     82% 0 mm 0.00 W/m2
00:39 24.5 °C 21.2 °C 1013.1 hPa Calm     82% 0 mm 0.00 W/m2
00:44 24.4 °C 21.2 °C 1012.8 hPa Calm     82% 0 mm 0.00 W/m2
00:49 24.3 °C 21.3 °C 1012.8 hPa Calm     83% 0 mm 0.00 W/m2
00:54 24.3 °C 21.3 °C 1012.8 hPa Calm     83% 0 mm 0.00 W/m2
00:59 24.3 °C 21.3 °C 1012.8 hPa Calm     83% 0 mm 0.00 W/m2
01:04 24.3 °C 21.2 °C 1013.1 hPa Calm     83% 0 mm 0.00 W/m2
01:09 24.3 °C 21.2 °C 1013.1 hPa Calm     83% 0 mm 0.00 W/m2
01:14 24.2 °C 21.2 °C 1013.1 hPa Calm     83% 0 mm 0.00 W/m2
01:19 24.2 °C 21.4 °C 1013.1 hPa Calm     84% 0 mm 0.00 W/m2
01:24 24.2 °C 21.4 °C 1013.1 hPa Calm     84% 0 mm 0.00 W/m2
01:29 24.2 °C 21.3 °C 1013.1 hPa Calm     84% 0 mm 0.00 W/m2
01:34 24.2 °C 21.3 °C 1013.1 hPa Calm     84% 0 mm 0.00 W/m2
01:39 24.1 °C 21.3 °C 1013.1 hPa Calm     84% 0 mm 0.00 W/m2
01:44 24.1 °C 21.2 °C 1013.1 hPa Calm     84% 0 mm 0.00 W/m2
01:49 24.1 °C 21.2 °C 1013.1 hPa Calm     84% 0 mm 0.00 W/m2
01:54 24.1 °C 21.2 °C 1013.1 hPa Calm     84% 0 mm 0.00 W/m2
01:59 24 °C 21.2 °C 1013.1 hPa Calm     84% 0 mm 0.00 W/m2
02:04 24 °C 21.2 °C 1013.1 hPa Calm     84% 0 mm 0.00 W/m2
02:09 24 °C 21.2 °C 1013.1 hPa Calm     84% 0 mm 0.00 W/m2
02:14 23.9 °C 21.1 °C 1013.1 hPa Calm     84% 0 mm 0.00 W/m2
02:19 23.9 °C 21.1 °C 1013.1 hPa Calm     84% 0 mm 0.00 W/m2
02:24 23.9 °C 21.1 °C 1013.1 hPa Calm     84% 0 mm 0.00 W/m2
02:29 23.9 °C 21.1 °C 1013.4 hPa Calm     84% 0 mm 0.00 W/m2
02:34 23.9 °C 21.1 °C 1013.4 hPa Calm     84% 0 mm 0.00 W/m2
02:39 23.9 °C 21.1 °C 1013.1 hPa Calm     84% 0 mm 0.00 W/m2
02:44 23.9 °C 21.1 °C 1013.1 hPa Calm     84% 0 mm 0.00 W/m2
02:49 23.9 °C 21.1 °C 1013.1 hPa Calm     84% 0 mm 0.00 W/m2
02:54 23.9 °C 21.1 °C 1013.1 hPa Calm     84% 0 mm 0.00 W/m2
02:59 23.9 °C 21.1 °C 1013.1 hPa Calm     84% 0 mm 0.00 W/m2
03:04 23.8 °C 21 °C 1013.1 hPa Calm     84% 0 mm 0.00 W/m2
03:09 23.8 °C 21 °C 1013.1 hPa Calm     84% 0 mm 0.00 W/m2
03:14 23.8 °C 21 °C 1012.8 hPa Calm     84% 0 mm 0.00 W/m2
03:19 23.8 °C 21 °C 1013.1 hPa Calm     84% 0 mm 0.00 W/m2
03:24 23.8 °C 20.9 °C 1012.8 hPa Calm     84% 0 mm 0.00 W/m2
03:29 23.8 °C 20.9 °C 1012.8 hPa Calm     84% 0 mm 0.00 W/m2
03:34 23.8 °C 20.9 °C 1012.8 hPa Calm     84% 0 mm 0.00 W/m2
03:39 23.8 °C 20.9 °C 1012.8 hPa Calm     84% 0 mm 0.00 W/m2
03:44 23.7 °C 20.9 °C 1013.1 hPa Calm     84% 0 mm 0.00 W/m2
03:49 23.7 °C 20.8 °C 1013.1 hPa Calm     84% 0 mm 0.00 W/m2
03:54 23.6 °C 20.9 °C 1013.1 hPa Calm     85% 0 mm 0.00 W/m2
03:59 23.6 °C 20.9 °C 1013.1 hPa Calm     85% 0 mm 0.00 W/m2
04:04 23.6 °C 20.9 °C 1013.1 hPa Calm     85% 0 mm 0.00 W/m2
04:09 23.5 °C 20.8 °C 1013.1 hPa Calm     85% 0 mm 0.00 W/m2
04:14 23.4 °C 20.8 °C 1013.1 hPa Calm     85% 0 mm 0.00 W/m2
04:19 23.4 °C 20.8 °C 1013.1 hPa Calm     85% 0 mm 0.00 W/m2
04:24 23.4 °C 20.8 °C 1013.1 hPa Calm     85% 0 mm 0.00 W/m2
04:29 23.4 °C 20.7 °C 1013.1 hPa Calm     85% 0 mm 0.00 W/m2
04:34 23.4 °C 20.7 °C 1013.1 hPa Calm     85% 0 mm 0.00 W/m2
04:39 23.4 °C 20.7 °C 1013.1 hPa Calm     85% 0 mm 0.00 W/m2
04:44 23.4 °C 20.7 °C 1013.1 hPa Calm     85% 0 mm 0.00 W/m2
04:49 23.3 °C 20.7 °C 1013.1 hPa Calm     85% 0 mm 0.00 W/m2
04:54 23.3 °C 20.9 °C 1013.4 hPa Calm     86% 0 mm 0.00 W/m2
04:59 23.3 °C 20.9 °C 1013.4 hPa Calm     86% 0 mm 0.00 W/m2
05:04 23.4 °C 20.9 °C 1013.4 hPa Calm     86% 0 mm 0.00 W/m2
05:09 23.4 °C 20.9 °C 1013.4 hPa Calm     86% 0 mm 0.00 W/m2
05:14 23.3 °C 20.9 °C 1013.4 hPa Calm     86% 0 mm 0.00 W/m2
05:19 23.3 °C 20.9 °C 1013.4 hPa Calm     86% 0 mm 0.00 W/m2
05:24 23.3 °C 20.9 °C 1013.4 hPa Calm     86% 0 mm 0.00 W/m2 CLR
05:29 23.3 °C 20.9 °C 1013.4 hPa Calm     86% 0 mm 0.00 W/m2 CLR
05:34 23.3 °C 20.9 °C 1013.4 hPa Calm     86% 0 mm 0.00 W/m2 CLR
05:39 23.3 °C 20.9 °C 1013.4 hPa Calm     86% 0 mm 0.00 W/m2 CLR
05:44 23.3 °C 20.9 °C 1013.4 hPa Calm     86% 0 mm 0.00 W/m2 CLR
05:49 23.3 °C 20.9 °C 1013.4 hPa Calm     86% 0 mm 0.00 W/m2 CLR
05:54 23.3 °C 20.9 °C 1013.4 hPa Calm     86% 0 mm 0.00 W/m2 CLR
05:59 23.3 °C 20.9 °C 1013.4 hPa Calm     86% 0 mm 0.00 W/m2 CLR
06:04 23.3 °C 20.8 °C 1013.4 hPa Calm     86% 0 mm 0.00 W/m2 CLR
06:09 23.3 °C 20.8 °C 1013.4 hPa Calm     86% 0 mm 0.00 W/m2 CLR
06:14 23.2 °C 20.6 °C 1013.4 hPa Calm     85% 0 mm 0.00 W/m2 CLR
06:19 23.2 °C 20.8 °C 1013.4 hPa Calm     86% 0 mm 0.00 W/m2 CLR
06:24 23.2 °C 20.8 °C 1013.4 hPa Calm     86% 0 mm 0.00 W/m2 CLR
06:29 23.2 °C 20.8 °C 1013.8 hPa Calm     86% 0 mm 0.00 W/m2 CLR
06:34 23.3 °C 20.8 °C 1013.8 hPa Calm     86% 0 mm 5.00 W/m2 CLR
06:39 23.3 °C 20.8 °C 1013.8 hPa Calm     86% 0 mm 5.00 W/m2 CLR
06:44 23.3 °C 20.8 °C 1013.8 hPa Calm     86% 0 mm 11.00 W/m2 CLR
06:49 23.3 °C 20.8 °C 1013.8 hPa Calm     86% 0 mm 12.00 W/m2 CLR
06:54 23.3 °C 20.6 °C 1013.8 hPa Calm   0.2 km/h 85% 0 mm 18.00 W/m2 CLR
06:59 23.3 °C 20.6 °C 1013.4 hPa Calm     85% 0 mm 21.00 W/m2 CLR
07:04 23.3 °C 20.6 °C 1013.4 hPa WSW 1.9 km/h   85% 0 mm 23.00 W/m2 OVC
07:09 23.3 °C 20.7 °C 1013.8 hPa Calm     85% 0 mm 25.00 W/m2 OVC
07:14 23.3 °C 20.7 °C 1013.4 hPa Calm     85% 0 mm 19.00 W/m2 OVC
07:19 23.3 °C 20.7 °C 1013.4 hPa Calm     85% 0 mm 19.00 W/m2 OVC
07:24 23.4 °C 20.7 °C 1013.8 hPa Calm   0.2 km/h 85% 0 mm 30.00 W/m2 OVC
07:29 23.4 °C 20.7 °C 1013.8 hPa Calm     85% 0 mm 33.00 W/m2 OVC
07:34 23.4 °C 20.6 °C 1013.8 hPa Calm     84% 0 mm 28.00 W/m2 OVC
07:39 23.4 °C 20.6 °C 1014.1 hPa Calm     84% 0 mm 21.00 W/m2 OVC
07:44 23.4 °C 20.3 °C 1013.8 hPa WSW 1.9 km/h 0.3 km/h 83% 0 mm 35.00 W/m2 OVC
07:49 23.4 °C 20.4 °C 1013.8 hPa Calm     83% 0 mm 42.00 W/m2 OVC
07:54 23.4 °C 20.4 °C 1013.8 hPa Calm     83% 0 mm 44.00 W/m2 OVC
07:59 23.5 °C 20.3 °C 1013.8 hPa Calm     82% 0 mm 39.00 W/m2 OVC
08:04 23.5 °C 20.3 °C 1013.8 hPa Calm     82% 0 mm 46.00 W/m2 OVC
08:09 23.6 °C 20.1 °C 1013.8 hPa Calm     81% 0 mm 47.00 W/m2 OVC
08:14 23.6 °C 20.1 °C 1014.1 hPa Calm     81% 0 mm 53.00 W/m2 OVC
08:19 23.7 °C 20.2 °C 1014.1 hPa Calm     81% 0 mm 51.00 W/m2 OVC
08:24 23.7 °C 20.3 °C 1014.1 hPa Calm     81% 0 mm 53.00 W/m2 OVC
08:29 23.8 °C 20.2 °C 1014.1 hPa Calm     80% 0 mm 60.00 W/m2 OVC
08:34 23.8 °C 20.2 °C 1014.1 hPa Calm     80% 0 mm 60.00 W/m2 OVC
08:39 23.9 °C 20.3 °C 1014.1 hPa Calm     80% 0 mm 65.00 W/m2 OVC
08:44 24.1 °C 20.2 °C 1014.1 hPa Calm     79% 0 mm 69.00 W/m2 OVC
08:49 24.2 °C 20.3 °C 1014.4 hPa Calm     79% 0 mm 67.00 W/m2 OVC
08:54 24.2 °C 20.4 °C 1014.4 hPa Calm     79% 0 mm 79.00 W/m2 OVC
08:59 24.3 °C 20.3 °C 1014.1 hPa Calm     78% 0 mm 58.00 W/m2 OVC
09:04 24.4 °C 20.4 °C 1013.8 hPa Calm     78% 0 mm 51.00 W/m2 OVC
09:09 24.6 °C 20.6 °C 1014.1 hPa Calm     78% 0 mm 62.00 W/m2 OVC
09:14 24.7 °C 20.4 °C 1013.8 hPa Calm     77% 0 mm 74.00 W/m2 OVC
09:19 24.8 °C 20.5 °C 1014.1 hPa Calm     77% 0 mm 97.00 W/m2 OVC
09:24 25.1 °C 20.9 °C 1014.1 hPa Calm     78% 0 mm 67.00 W/m2 OVC
09:29 25.4 °C 21.1 °C 1014.1 hPa Calm     77% 0 mm 69.00 W/m2 OVC
09:34 25.9 °C 21.6 °C 1013.8 hPa Calm     77% 0 mm 49.00 W/m2 OVC
09:39 26.5 °C 21.9 °C 1014.1 hPa Calm     76% 0 mm 54.00 W/m2 OVC
09:44 27.1 °C 21.8 °C 1013.8 hPa Calm     73% 0 mm 58.00 W/m2 OVC
09:49 27.7 °C 22.2 °C 1013.8 hPa Calm     72% 0 mm 51.00 W/m2 OVC
09:54 28.2 °C 22.2 °C 1013.8 hPa Calm     70% 0 mm 54.00 W/m2 OVC
09:59 28.6 °C 22.1 °C 1013.4 hPa Calm     68% 0 mm 90.00 W/m2 OVC
10:04 28.9 °C 22.2 °C 1013.8 hPa Calm     67% 0 mm 79.00 W/m2 OVC
10:09 29.2 °C 21.9 °C 1013.8 hPa Calm     65% 0 mm 74.00 W/m2 OVC
10:14 29.2 °C 21.7 °C 1013.8 hPa Calm     64% 0 mm 93.00 W/m2 OVC
10:19 29.1 °C 21.6 °C 1013.8 hPa Calm     64% 0 mm 79.00 W/m2 OVC
10:24 29.1 °C 21.6 °C 1013.8 hPa Calm     64% 0 mm 91.00 W/m2 OVC
10:29 29.1 °C 21.3 °C 1013.8 hPa Calm     63% 0 mm 93.00 W/m2 OVC
10:34 29.1 °C 21.3 °C 1013.8 hPa Calm     63% 0 mm 97.00 W/m2 OVC
10:39 29.2 °C 21.4 °C 1013.8 hPa Calm     63% 0 mm 123.00 W/m2 OVC
10:44 29.3 °C 21.3 °C 1013.8 hPa Calm     62% 0 mm 127.00 W/m2 OVC
10:49 29.5 °C 21.5 °C 1013.8 hPa Calm     62% 0 mm 134.00 W/m2 OVC
10:54 27.5 °C 19.6 °C 1013.8 hPa Calm     62% 0 mm 151.00 W/m2 OVC
10:59 27.7 °C 19.7 °C 1013.8 hPa Calm     62% 0 mm 134.00 W/m2 OVC
11:04 27.8 °C 19.3 °C 1013.8 hPa South 1.9 km/h 1 km/h 60% 0 mm 116.00 W/m2 OVC
11:09 27.6 °C 19.3 °C 1013.8 hPa South 2.4 km/h 1 km/h 61% 0 mm 118.00 W/m2 OVC
11:14 27.1 °C 19.1 °C 1013.8 hPa South 1.9 km/h   62% 0 mm 128.00 W/m2 OVC
11:19 26.7 °C 19.1 °C 1013.8 hPa South 2.4 km/h 0.8 km/h 63% 0 mm 116.00 W/m2 OVC
11:24 26.2 °C 18.6 °C 1013.8 hPa South 1.9 km/h 0.5 km/h 63% 0 mm 107.00 W/m2 OVC
11:29 25.9 °C 18.8 °C 1013.8 hPa Calm   0.2 km/h 65% 0 mm 88.00 W/m2 OVC
11:34 25.7 °C 18.9 °C 1013.8 hPa Calm     66% 0 mm 83.00 W/m2 OVC
11:39 25.6 °C 18.6 °C 1013.4 hPa Calm     65% 0 mm 84.00 W/m2 OVC
11:44 25.6 °C 18.7 °C 1013.4 hPa Calm     66% 0 mm 77.00 W/m2 OVC
11:49 25.6 °C 18.7 °C 1013.4 hPa Calm     66% 0 mm 83.00 W/m2 OVC
11:54 25.6 °C 18.8 °C 1013.8 hPa Calm     66% 0 mm 93.00 W/m2 OVC
11:59 25.7 °C 18.8 °C 1013.4 hPa SSW 1.9 km/h 0.2 km/h 66% 0 mm 116.00 W/m2 OVC
12:04 25.7 °C 18.8 °C 1013.4 hPa SSW 1.9 km/h   66% 0 mm 116.00 W/m2 OVC
12:09 25.8 °C 18.9 °C 1013.4 hPa South 2.4 km/h 1 km/h 66% 0 mm 118.00 W/m2 OVC
12:14 25.7 °C 18.8 °C 1013.8 hPa South 5.6 km/h 1 km/h 66% 0 mm 125.00 W/m2 OVC
12:19 25.4 °C 18.6 °C 1013.4 hPa South 1.9 km/h 1.3 km/h 66% 0 mm 114.00 W/m2 OVC
12:24 25.1 °C 18.7 °C 1013.4 hPa South 1.9 km/h 1.6 km/h 68% 0 mm 139.00 W/m2 OVC
12:29 24.9 °C 18.8 °C 1013.4 hPa South 1.9 km/h 1 km/h 69% 0 mm 116.00 W/m2 OVC
12:34 24.7 °C 18.8 °C 1013.4 hPa South 1.9 km/h 0.8 km/h 70% 0 mm 102.00 W/m2 OVC
12:39 24.6 °C 18.7 °C 1013.4 hPa South 1.9 km/h 2.4 km/h 70% 0 mm 137.00 W/m2 OVC
12:44 24.4 °C 18.8 °C 1013.4 hPa Calm     71% 0 mm 141.00 W/m2 OVC
12:49 24.4 °C 18.8 °C 1013.4 hPa South 2.4 km/h 0.3 km/h 71% 0 mm 139.00 W/m2 OVC
12:54 24.4 °C 19.1 °C 1013.4 hPa South 1.9 km/h   72% 0 mm 128.00 W/m2 OVC
12:59 24.4 °C 19.1 °C 1013.4 hPa South 5.6 km/h 1.3 km/h 72% 0 mm 127.00 W/m2 OVC
13:04 24.5 °C 19.1 °C 1013.4 hPa South 5.6 km/h   72% 0 mm 107.00 W/m2 OVC
13:09 24.6 °C 19.2 °C 1013.4 hPa Calm     72% 0 mm 104.00 W/m2 OVC
13:14 24.8 °C 19.4 °C 1013.4 hPa South 1.9 km/h 0.3 km/h 72% 0 mm 104.00 W/m2 OVC
13:19 24.9 °C 19.6 °C 1013.4 hPa Calm     72% 0 mm 102.00 W/m2 OVC
13:24 25.2 °C 19.8 °C 1013.4 hPa SSW 1.9 km/h   72% 0 mm 105.00 W/m2 OVC
13:29 25.6 °C 19.9 °C 1013.4 hPa Calm     71% 0 mm 107.00 W/m2 OVC
13:34 26.1 °C 20.2 °C 1013.4 hPa SSW 1.9 km/h 1 km/h 70% 0 mm 141.00 W/m2 OVC
13:39 26.4 °C 20.2 °C 1013.4 hPa South 1.9 km/h   69% 0 mm 146.00 W/m2 OVC
13:44 26.7 °C 20.3 °C 1013.4 hPa Calm     68% 0 mm 169.00 W/m2 OVC
13:49 26.9 °C 20.2 °C 1013.4 hPa South 1.9 km/h 0.2 km/h 67% 0 mm 211.00 W/m2 OVC
13:54 27 °C 20.1 °C 1013.4 hPa Calm     66% 0 mm 302.00 W/m2 OVC
13:59 27.2 °C 20.3 °C 1013.4 hPa South 5.6 km/h 0.6 km/h 66% 0 mm 881.00 W/m2 OVC
14:04 27.4 °C 20.2 °C 1013.4 hPa South 1.9 km/h   65% 0 mm 923.00 W/m2 OVC
14:09 27.6 °C 20.4 °C 1013.4 hPa Calm     65% 0 mm 868.00 W/m2 OVC
14:14 27.9 °C 20.2 °C 1013.4 hPa South 1.9 km/h   63% 0 mm 865.00 W/m2 OVC
14:19 28.2 °C 20.4 °C 1013.4 hPa South 1.9 km/h 0.5 km/h 63% 0 mm 858.00 W/m2 OVC
14:24 28.6 °C 20.1 °C 1013.4 hPa South 1.9 km/h 0.2 km/h 60% 0 mm 858.00 W/m2 OVC
14:29 29.4 °C 20.8 °C 1013.1 hPa South 1.9 km/h 0.2 km/h 60% 0 mm 853.00 W/m2 OVC
14:34 29.6 °C 20.4 °C 1013.1 hPa South 1.9 km/h   58% 0 mm 856.00 W/m2 OVC
14:39 29.4 °C 20.3 °C 1013.1 hPa South 1.9 km/h 0.2 km/h 58% 0 mm 854.00 W/m2 OVC
14:44 29.2 °C 20.1 °C 1013.1 hPa South 5.6 km/h 1.4 km/h 58% 0 mm 846.00 W/m2 OVC
14:49 29.4 °C 19.9 °C 1013.4 hPa Calm   0.3 km/h 57% 0 mm 844.00 W/m2 OVC
14:54 29.5 °C 20.1 °C 1013.1 hPa SSW 5.6 km/h 1.3 km/h 57% 0 mm 838.00 W/m2 OVC
14:59 29.6 °C 20.2 °C 1013.1 hPa SSW 1.9 km/h 0.2 km/h 57% 0 mm 835.00 W/m2 OVC
15:04 29.8 °C 20.1 °C 1013.1 hPa SSW 1.9 km/h 0.2 km/h 56% 0 mm 833.00 W/m2 OVC
15:09 30 °C 19.7 °C 1013.1 hPa South 1.9 km/h 0.8 km/h 54% 0 mm 830.00 W/m2 OVC
15:14 30.1 °C 20 °C 1013.1 hPa SSW 1.9 km/h 0.8 km/h 55% 0 mm 826.00 W/m2 OVC
15:19 30.1 °C 19.8 °C 1012.8 hPa SSW 1.9 km/h   54% 0 mm 816.00 W/m2 OVC
15:24 30.3 °C 19.7 °C 1012.8 hPa South 2.4 km/h 0.3 km/h 53% 0 mm 805.00 W/m2 OVC
15:29 30.6 °C 19.9 °C 1012.8 hPa South 1.9 km/h   53% 0 mm 802.00 W/m2 OVC
15:34 30.4 °C 19.4 °C 1012.8 hPa South 1.9 km/h 0.3 km/h 52% 0 mm 802.00 W/m2 OVC
15:39 30.6 °C 19.9 °C 1012.8 hPa South 1.9 km/h   53% 0 mm 788.00 W/m2 OVC
15:44 30.8 °C 19.8 °C 1012.4 hPa SSW 1.9 km/h 0.3 km/h 52% 0 mm 779.00 W/m2 OVC
15:49 31 °C 19.7 °C 1012.4 hPa SSW 1.9 km/h 1.6 km/h 51% 0 mm 773.00 W/m2 OVC
15:54 31.2 °C 20.1 °C 1012.4 hPa South 1.9 km/h 0.6 km/h 52% 0 mm 759.00 W/m2 OVC
15:59 31.4 °C 20 °C 1012.1 hPa South 1.9 km/h 0.2 km/h 51% 0 mm 751.00 W/m2 OVC
16:04 31.5 °C 19.8 °C 1012.1 hPa SSW 1.9 km/h 0.6 km/h 50% 0 mm 737.00 W/m2 OVC
16:09 31.6 °C 20.2 °C 1012.1 hPa South 5.6 km/h 2.3 km/h 51% 0 mm 728.00 W/m2 OVC
16:14 31.3 °C 19.9 °C 1012.1 hPa South 7.4 km/h 5.1 km/h 51% 0 mm 719.00 W/m2 OVC
16:19 31.3 °C 20 °C 1012.1 hPa South 5.6 km/h 1.1 km/h 51% 0 mm 694.00 W/m2 OVC
16:24 31.8 °C 20.4 °C 1011.7 hPa SSW 1.9 km/h 0.3 km/h 51% 0 mm 684.00 W/m2 OVC
16:29 32.2 °C 20.4 °C 1011.7 hPa SW 1.9 km/h   50% 0 mm 673.00 W/m2 OVC
16:34 31.9 °C 20.2 °C 1011.7 hPa South 7.4 km/h 3.2 km/h 50% 0 mm 657.00 W/m2 OVC
16:39 32.4 °C 20.3 °C 1011.4 hPa South 4.8 km/h 1.4 km/h 49% 0 mm 650.00 W/m2 OVC
16:44 32.6 °C 20.8 °C 1011.4 hPa SSW 2.4 km/h 0.5 km/h 50% 0 mm 642.00 W/m2 OVC
16:49 32.9 °C 21.1 °C 1011.1 hPa Calm     50% 0 mm 629.00 W/m2 OVC
16:54 33 °C 20.8 °C 1011.1 hPa Calm     49% 0 mm 617.00 W/m2 OVC
16:59 34.2 °C 20.9 °C 1010.7 hPa Calm     46% 0 mm 608.00 W/m2 OVC
17:04 34.7 °C 21.3 °C 1010.7 hPa Calm     46% 0 mm 598.00 W/m2 OVC
17:09 34.6 °C 21.3 °C 1010.7 hPa Calm     46% 0 mm 582.00 W/m2 OVC
17:14 34.8 °C 21.4 °C 1010.7 hPa Calm     46% 0 mm 571.00 W/m2 OVC
17:19 34.5 °C 20.8 °C 1010.7 hPa SW 1.9 km/h 0.6 km/h 45% 0 mm 462.00 W/m2 OVC
17:24 34.9 °C 21.2 °C 1010.7 hPa Calm     45% 0 mm 452.00 W/m2 OVC
17:29 34.3 °C 21 °C 1010.7 hPa Calm     46% 0 mm 163.00 W/m2 OVC
17:34 32.3 °C 20.8 °C 1010.7 hPa South 5.6 km/h 1.1 km/h 51% 0 mm 141.00 W/m2 OVC
17:39 30.9 °C 20.6 °C 1010.7 hPa South 1.9 km/h 0.6 km/h 54% 0 mm 120.00 W/m2 OVC
17:44 30.4 °C 20.9 °C 1010.4 hPa Calm     57% 0 mm 118.00 W/m2 OVC
High Park Village Arhives